Dewpoint
32 30 33 33 34 38 35 36 36 36 34 39 40 39 38 38 39 39 39 41 42 42 43 46 51 51 50 52 53 53 53 54 55 55 55 55 55 56 56 55 55 55 55 55
29 29 32 33 36 37 39 36 37 37 37 42 42 43 38 38 38 39 40 42 44 46 48 48 49 52 53 52 52 53 52 52 53 55 56 56 56 56 56 55 55 55 55 54
27 31 32 32 35 38 38 39 39 37 39 42 43 39 38 38 39 39 42 43 46 48 47 47 48 49 50 52 54 55 53 52 52 53 54 55 56 56 55 55 55 55 55 55
28 31 26 32 36 38 39 40 40 40 40 40 41 36 37 38 38 39 43 45 47 46 45 45 45 49 50 49 49 50 53 54 54 54 53 54 55 55 55 56 56 55 55 55
26 27 29 32 39 38 38 37 40 41 42 41 42 38 37 39 40 42 44 46 45 43 42 41 41 45 46 45 46 46 48 49 48 50 50 54 54 54 55 55 55 55 55 55
29 26 25 32 39 38 38 34 40 41 40 39 37 36 36 39 38 38 39 44 42 39 38 37 37 41 42 42 42 42 43 43 42 42 44 46 50 52 55 55 55 55 54 48
27 27 29 37 39 38 32 35 43 40 37 35 35 36 39 38 36 36 36 36 38 36 34 34 34 37 37 37 38 39 39 39 38 37 38 38 43 44 44 49 49 45 41 37
27 25 23 40 40 37 41 43 38 38 38 37 36 36 36 35 33 33 33 33 35 34 32 32 32 33 34 34 36 37 36 34 33 33 33 34 35 37 38 39 39 37 34 32
27 28 39 40 42 39 37 36 36 36 36 36 35 35 34 32 32 30 30 30 32 31 31 30 30 31 31 32 35 35 33 32 31 30 30 30 31 30 32 34 34 32 31 30
32 37 37 36 36 36 37 36 35 34 34 34 33 33 31 30 29 28 27 28 28 28 27 27 27 28 30 31 33 33 32 30 29 28 28 28 28 29 29 30 30 30 29 27
34 35 37 37 35 35 35 35 34 33 31 31 31 30 29 27 26 25 25 25 25 26 25 25 26 27 28 30 31 30 30 29 28 27 26 27 28 28 28 29 29 27 28 28
32 36 35 35 34 34 33 32 30 30 28 27 27 27 25 24 23 23 23 23 23 24 25 25 25 27 28 29 29 29 28 28 27 27 26 25 24 25 30 30 30 30 30 29
35 35 33 32 30 32 32 29 27 26 25 24 24 24 22 22 22 23 21 21 22 23 24 25 27 27 28 29 28 28 27 27 27 26 26 25 23 22 21 24 27 28 30 30
31 32 29 29 27 29 30 28 28 25 24 23 23 21 20 20 20 20 21 22 21 21 21 23 25 27 29 27 28 28 27 27 26 26 25 24 23 23 22 21 20 20 25 26
28 29 29 27 26 26 27 27 25 24 23 22 22 22 21 20 18 18 20 19 18 18 19 19 20 24 27 27 25 25 26 26 25 24 23 23 22 21 20 20 20 20 19 19
25 24 26 28 25 24 24 24 23 23 22 21 21 21 20 19 18 16 17 17 15 15 17 17 18 21 25 25 24 23 24 24 24 23 22 21 20 19 18 18 17 17 16 17
22 22 23 25 23 22 22 23 21 20 19 18 18 21 19 17 16 15 15 15 14 14 17 17 18 20 23 23 23 22 22 21 21 22 22 21 20 18 18 16 15 15 15 17
23 23 24 24 21 20 20 19 18 17 17 17 16 14 13 12 12 13 13 13 11 10 12 16 18 18 20 22 22 21 21 21 20 19 18 19 18 18 16 15 14 13 11 10
20 20 21 19 20 19 18 17 18 18 17 16 14 13 12 12 11 11 11 10 9 7 9 12 16 15 16 18 17 18 17 16 16 17 16 14 14 14 14 13 11 10 9 9
18 18 18 18 18 16 15 14 14 14 15 13 11 10 9 10 11 9 8 8 9 10 11 11 12 13 13 13 14 14 15 14 14 14 13 13 12 11 11 10 10 10 8 9
13 14 14 13 14 13 14 10 11 11 12 9 8 8 6 6 7 8 7 6 8 9 9 10 10 11 11 10 10 11 11 10 10 10 10 9 8 7 7 6 5 4 5 5
11 12 11 10 11 13 10 11 11 9 8 7 7 8 8 7 5 5 6 7 8 7 7 8 9 8 10 10 10 9 9 7 7 7 6 6 3 0 0 3 -1 -2 -3 2
11 12 12 9 9 10 10 8 5 6 4 3 5 6 7 8 7 5 3 7 7 5 6 6 6 8 9 9 6 5 5 7 5 2 2 0 -1 -4 -4 -3 2 -1 -8 -6
16 14 11 11 12 13 12 10 11 10 7 9 5 5 12 9 9 8 7 5 4 -1 -1 3 6 4 1 1 5 2 -4 -3 -1 -1 -0 -3 -8 -6 -2 -10 -10 -14 -14 -5
14 14 16 14 15 12 14 13 13 13 12 11 11 10 8 9 1 3 3 1 5 7 -3 -6 -0 3 -5 -9 -11 -8 -4 -12 -11 -13 -6 -8 -14 -6 -15 -16 -17 -12 -8 -11
18 15 15 15 13 13 14 15 14 13 13 10 5 -1 -2 3 7 8 4 2 1 1 -2 -7 -11 -11 -12 -6 -10 -11 -5 -5 -13 -13 -13 -10 -14 -8 -11 -16 -16 -14 -16 -17
15 13 15 13 12 11 10 12 12 9 1 0 2 1 7 3 -1 4 0 -5 -2 -7 -7 -8 -3 -6 -10 -11 -10 -10 -9 -10 -10 -11 -11 -8 -13 -14 -12 -17 -19 -18 -17 -17
Lifted_Index
3 3 3 3 2 1 1 1 1 1 1 1 1 2 2 2 1 1 1 1 1 1 1 0 -0 -1 -2 -2 -2 -2 -2 -1 -1 -1 -1 -0 -0 0 0 0 0 0 0 1
3 3 3 2 2 1 1 1 1 1 1 1 1 2 2 2 1 1 1 1 1 1 1 1 0 -1 -1 -2 -2 -2 -2 -2 -2 -1 -1 -1 -1 -0 -0 -0 -0 -0 0 0
3 3 2 2 2 1 1 1 1 1 1 1 1 2 2 2 2 2 2 1 1 1 1 1 1 1 0 -1 -2 -2 -2 -2 -2 -2 -2 -2 -1 -1 -1 -1 -1 -1 -0 -0
3 2 2 2 1 1 1 1 1 1 1 1 2 2 2 2 2 2 2 2 2 2 2 2 2 2 1 1 -0 -1 -2 -2 -2 -2 -2 -2 -2 -2 -1 -1 -1 -1 -1 -1
2 2 2 1 1 1 1 1 1 1 1 2 2 2 2 3 3 3 3 2 2 2 3 3 2 2 2 1 1 1 -0 -1 -1 -2 -2 -2 -2 -2 -2 -1 -1 -2 -2 -2
2 2 1 1 1 1 1 1 2 2 2 2 2 2 3 3 3 3 2 2 2 2 3 3 3 2 2 2 2 2 1 0 -0 -1 -1 -2 -2 -2 -2 -2 -1 -1 -2 -2
2 2 1 1 1 1 1 2 2 3 3 3 3 4 4 3 3 3 2 2 2 2 3 3 3 3 3 2 2 2 2 1 1 1 0 -1 -1 -2 -2 -2 -2 -2 -2 -1
2 2 1 1 1 1 2 2 3 3 4 5 5 5 5 4 4 4 3 3 3 3 3 3 3 3 3 3 3 3 3 2 2 2 2 1 0 -1 -1 -2 -2 -2 -2 -2
2 1 1 1 1 2 2 3 4 5 5 6 6 6 6 6 6 5 5 4 4 3 3 3 4 4 4 4 4 4 4 4 3 3 3 2 2 1 1 -0 -1 -2 -2 -2
1 1 1 1 2 2 3 4 5 5 6 6 6 6 6 6 6 6 6 5 5 4 3 3 4 4 5 5 5 5 5 5 5 4 4 4 3 3 3 2 1 1 0 0
1 1 2 3 3 4 4 5 5 6 6 6 6 6 6 6 7 7 6 6 5 5 4 4 5 6 6 6 6 6 5 5 5 6 6 5 5 5 6 6 6 6 5 5
2 2 3 4 4 5 5 5 6 6 5 5 5 6 6 6 6 6 6 6 6 6 6 6 7 7 8 8 7 7 6 6 6 7 7 7 7 7 9 11 12 12 12 11
3 3 4 4 5 5 5 5 6 6 6 5 6 6 6 6 6 6 7 7 8 8 8 8 9 9 10 10 9 8 8 8 8 9 9 10 10 10 11 13 14 15 16 16
4 4 4 5 5 5 5 5 6 6 6 6 6 6 6 6 6 7 8 9 10 10 10 11 11 11 13 13 12 11 10 11 11 12 12 12 12 12 13 13 14 15 17 18
4 5 5 5 6 6 6 6 6 6 6 7 7 7 7 8 8 9 11 12 12 12 12 13 13 14 15 16 15 14 13 13 14 14 14 15 15 14 14 14 14 15 17 18
4 5 5 6 6 6 6 7 6 7 7 8 9 9 10 10 11 12 14 15 14 14 14 14 15 16 17 16 15 15 14 14 15 15 15 15 15 15 15 15 15 16 17 17
6 6 6 6 6 6 7 8 8 9 9 10 11 12 13 13 13 14 15 16 16 15 15 16 16 17 17 16 15 15 14 14 14 14 14 15 15 15 15 16 16 16 17 18
8 8 8 8 8 8 9 10 11 11 12 13 14 14 14 14 14 15 15 16 16 16 16 17 17 17 17 17 16 16 15 15 15 15 15 15 16 16 17 17 17 18 19 20
10 10 10 11 11 11 11 12 13 14 14 15 15 15 15 15 15 15 16 16 15 16 17 19 19 19 19 19 19 18 18 17 17 17 17 17 18 18 19 19 20 20 21 22
11 12 12 12 13 13 13 14 14 15 16 16 16 15 15 15 16 16 16 16 17 18 20 21 21 21 21 21 21 20 20 19 19 19 19 20 20 20 21 21 22 22 23 23
12 13 13 13 14 14 15 15 16 16 16 16 16 16 16 16 17 17 18 18 19 21 22 22 22 22 22 22 22 21 21 20 20 20 20 20 21 21 22 22 23 23 23 23
13 13 14 14 14 15 16 16 16 16 16 16 16 16 17 17 18 18 19 20 21 23 23 23 22 22 22 22 21 21 21 20 20 20 20 21 21 21 21 22 22 23 23 24
14 14 14 15 15 15 16 16 16 17 17 17 17 18 18 18 19 19 20 21 22 23 23 22 22 22 22 21 21 21 20 20 20 21 21 21 21 22 22 22 22 23 23 23
15 15 15 15 15 15 16 16 17 17 18 18 19 19 19 19 19 20 21 21 22 22 22 22 22 21 21 21 21 20 20 21 21 21 22 22 22 22 22 22 22 22 22 22
14 15 15 15 15 15 16 17 18 18 18 18 19 20 20 20 20 21 21 21 21 21 21 21 21 21 20 20 20 20 20 20 21 21 21 21 21 21 21 21 21 21 21 21
15 15 15 15 16 16 17 18 18 18 18 18 18 19 20 20 20 20 20 20 20 19 19 20 20 20 20 19 19 19 19 19 20 20 20 20 20 20 20 20 21 21 21 21
15 15 15 16 16 17 18 18 18 18 18 18 18 18 19 19 20 19 19 19 19 19 19 19 19 19 19 19 19 19 19 19 19 19 20 20 20 20 20 21 21 22 22 22